Albuquerque Double Eagle, NM

3:56 AM MDT on April 26, 2018 (GMT -0600)
Double Eagle Ii

Weather History for KAEG - January, 2013

Change the Weather History Date:

Thursday, January 10, 2013

  Actual Average (KABQ) Record (KABQ)
Temperature  
Mean Temperature 28 °F -  
Max Temperature 39 °F 47 °F 63 °F (1990)
Min Temperature 17 °F 23 °F -6 °F (1913)
Degree Days  
Heating Degree Days 37    
Moisture  
Dew Point 9 °F    
Average Humidity 46    
Maximum Humidity 63    
Minimum Humidity 28    
Precipitation  
Precipitation 0.00 in - - ()
Sea Level Pressure  
Sea Level Pressure 29.95 in    
Wind  
Wind Speed 5 mph (SW)    
Max Wind Speed 20 mph    
Max Gust Speed -    
Visibility 10 miles    
Events      
Averages and records for this station are not official NWS values.
T = Trace of Precipitation, MM = Missing Value Source: NWS Daily Summary

Daily Weather History Graph

Daily Weather History Graph

Search for Another Location

Airport or City:

Astronomy

Jan. 10, 2013 Rise Set
Actual Time 7:15 AM MST 5:14 PM MST
Civil Twilight 6:48 AM MST 5:41 PM MST
Nautical Twilight 6:16 AM MST 6:13 PM MST
Astronomical Twilight 5:46 AM MST 6:43 PM MST
Moon 5:58 AM MST (1/10) 4:24 PM MST (1/10)
Length of Visible Light 10h 53m
Length of Day
9h 58m
Waning Crescent, 2% of the Moon is Illuminated
Jan 10
Waning Crescent
Jan 11
New
Jan 18
First Quarter
Jan 26
Full
Feb 3
Last Quarter

Hourly Weather History & Observations

Time (MST) Temp. Windchill Dew Point Humidity Pressure Visibility Wind Dir Wind Speed Gust Speed Precip Events Conditions
1:15 AM 21.2 °F 12.6 °F 6.8 °F 54% 30.12 in 10.0 mi North 6.9 mph - N/A   Clear
1:35 AM 21.2 °F 12.6 °F 6.8 °F 54% 30.11 in 10.0 mi NNW 6.9 mph - N/A   Clear
1:55 AM 23.0 °F 14.7 °F 6.8 °F 50% 30.11 in 10.0 mi NNW 6.9 mph - N/A   Clear
2:15 AM 23.0 °F 13.9 °F 6.8 °F 50% 30.10 in 10.0 mi North 8.1 mph - N/A   Clear
2:35 AM 19.4 °F - 6.8 °F 58% 30.09 in 10.0 mi Calm Calm - N/A   Clear
2:55 AM 21.2 °F 11.7 °F 6.8 °F 54% 30.09 in 10.0 mi NNW 8.1 mph - N/A   Clear
3:15 AM 19.4 °F - 6.8 °F 58% 30.08 in 10.0 mi Calm Calm - N/A   Clear
3:35 AM 23.0 °F 14.7 °F 6.8 °F 50% 30.08 in 10.0 mi North 6.9 mph - N/A   Clear
3:55 AM 23.0 °F 15.8 °F 6.8 °F 50% 30.06 in 10.0 mi North 5.8 mph - N/A   Clear
4:15 AM 19.4 °F - 5.0 °F 54% 30.06 in 10.0 mi Calm Calm - N/A   Clear
4:35 AM 19.4 °F - 5.0 °F 54% 30.05 in 10.0 mi Calm Calm - N/A   Clear
5:50 AM 17.6 °F - 5.0 °F 58% 30.04 in 10.0 mi Calm Calm - N/A   Clear
6:50 AM 17.6 °F 9.3 °F 5.0 °F 58% 30.03 in 10.0 mi North 5.8 mph - N/A   Mostly Cloudy
7:50 AM 17.6 °F 10.7 °F 6.8 °F 63% 30.03 in 10.0 mi North 4.6 mph - N/A   Mostly Cloudy
8:50 AM 24.8 °F - 8.6 °F 50% 30.04 in 10.0 mi Calm Calm - N/A   Mostly Cloudy
9:50 AM 32.0 °F - 8.6 °F 38% 30.05 in 10.0 mi Calm Calm - N/A   Mostly Cloudy
10:50 AM 33.8 °F - 8.6 °F 35% 30.03 in 10.0 mi Calm Calm - N/A   Mostly Cloudy
11:50 AM 35.6 °F 30.7 °F 8.6 °F 33% 29.99 in 10.0 mi SSE 5.8 mph - N/A   Mostly Cloudy
1:50 PM 39.2 °F 32.0 °F 10.4 °F 31% 29.91 in 10.0 mi SSE 11.5 mph - N/A   Mostly Cloudy
2:50 PM 39.2 °F 33.0 °F 8.6 °F 28% 29.89 in 10.0 mi South 9.2 mph - N/A   Mostly Cloudy
3:50 PM 37.4 °F 31.4 °F 8.6 °F 30% 29.88 in 10.0 mi South 8.1 mph - N/A   Mostly Cloudy
4:50 PM 37.4 °F 31.4 °F 10.4 °F 33% 29.86 in 10.0 mi SSE 8.1 mph - N/A   Mostly Cloudy
5:50 PM 35.6 °F - 8.6 °F 33% 29.85 in 10.0 mi Calm Calm - N/A   Mostly Cloudy
6:50 PM 32.0 °F - 8.6 °F 38% 29.85 in 10.0 mi Calm Calm - N/A   Mostly Cloudy
9:15 PM 30.2 °F - 8.6 °F 40% 29.80 in 5.0 mi Calm Calm - N/A   Clear
9:35 PM 32.0 °F - 8.6 °F 38% 29.80 in 8.0 mi Calm Calm - N/A   Clear
9:55 PM 32.0 °F - 8.6 °F 38% 29.79 in 10.0 mi Calm Calm - N/A   Partly Cloudy
10:15 PM 32.0 °F 24.2 °F 10.4 °F 41% 29.78 in 10.0 mi South 9.2 mph - N/A   Clear
10:55 PM 28.4 °F 20.4 °F 10.4 °F 47% 29.77 in 10.0 mi SSW 8.1 mph - N/A   Clear
11:15 PM 35.6 °F 25.2 °F 17.6 °F 48% 29.75 in 10.0 mi South 18.4 mph - N/A   Clear
11:35 PM 35.6 °F 25.2 °F 17.6 °F 48% 29.74 in 10.0 mi South 18.4 mph - N/A   Clear
11:55 PM 35.6 °F 24.8 °F 17.6 °F 48% 29.73 in 10.0 mi South 19.6 mph - N/A   Clear